| time (UTC) | temp F | wind direction | speed knots | gust knots | rain 1hr in | rain 24hr in | rain mn in | humidity % | barometer mb |
| 20260503072940 | 59 | 110 | 1.7 | 0.0 | 0.00 | 0.00 | 0.00 | 10 | 1017.0 |
| 20260503071939 | 59 | 110 | 1.7 | 0.0 | 0.00 | 0.00 | 0.00 | 10 | 1017.0 |
| 20260503070938 | 59 | 110 | 1.7 | 0.0 | 0.00 | 0.00 | 0.00 | 10 | 1017.0 |
| 20260503054929 | 59 | 0 | 0.9 | 0.0 | 0.00 | 0.00 | 0.00 | 10 | 1018.0 |
| 20260503053928 | 59 | 0 | 0.9 | 0.0 | 0.00 | 0.00 | 0.00 | 10 | 1018.0 |
| 20260503052919 | 59 | 0 | 0.9 | 0.0 | 0.00 | 0.00 | 0.00 | 10 | 1018.0 |
| 20260503051915 | 59 | 0 | 0.9 | 0.0 | 0.00 | 0.00 | 0.00 | 10 | 1018.0 |
| 20260503050909 | 59 | 0 | 0.9 | 0.0 | 0.00 | 0.00 | 0.00 | 10 | 1018.0 |
| 20260503045908 | 59 | 0 | 1.7 | 0.0 | 0.00 | 0.00 | 0.00 | 10 | 1018.0 |
| 20260503044907 | 59 | 0 | 1.7 | 0.0 | 0.00 | 0.00 | 0.00 | 10 | 1018.0 |
| 20260503043906 | 59 | 0 | 1.7 | 0.0 | 0.00 | 0.00 | 0.00 | 10 | 1019.0 |
| 20260503042904 | 59 | 0 | 1.7 | 0.0 | 0.00 | 0.00 | 0.00 | 10 | 1019.0 |
| 20260503041903 | 59 | 0 | 1.7 | 0.0 | 0.00 | 0.00 | 0.00 | 10 | 1019.0 |
| 20260503040903 | 59 | 0 | 1.7 | 0.0 | 0.00 | 0.00 | 0.00 | 10 | 1019.0 |
| 20260503035901 | 59 | 0 | 1.7 | 0.0 | 0.00 | 0.00 | 0.00 | 10 | 1019.0 |
| 20260503034900 | 60 | 0 | 1.7 | 0.0 | 0.00 | 0.00 | 0.00 | 10 | 1019.0 |
| 20260503033900 | 60 | 0 | 1.7 | 0.0 | 0.00 | 0.00 | 0.00 | 10 | 1019.0 |
| 20260503032858 | 54 | 42 | 0.9 | 0.9 | 0.00 | 0.00 | 0.00 | 93 | 1018.0 |
| 20260503031857 | 55 | 42 | 0.9 | 0.9 | 0.00 | 0.00 | 0.00 | 93 | 1018.0 |
| 20260503030856 | 55 | 42 | 0.9 | 0.9 | 0.00 | 0.00 | 0.00 | 93 | 1018.0 |
| 20260503025853 | 54 | 42 | 0.9 | 0.9 | 0.00 | 0.00 | 0.00 | 93 | 1018.0 |
| 20260503024851 | 54 | 44 | 0.9 | 0.9 | 0.00 | 0.00 | 0.00 | 93 | 1018.0 |
| 20260503023847 | 54 | 68 | 0.9 | 3.5 | 0.00 | 0.00 | 0.00 | 93 | 1018.0 |
| 20260503022847 | 55 | 68 | 0.9 | 3.5 | 0.00 | 0.00 | 0.00 | 93 | 1017.0 |
| 20260503021844 | 55 | 68 | 0.9 | 3.5 | 0.00 | 0.00 | 0.00 | 93 | 1017.0 |
| 20260503020843 | 55 | 68 | 0.9 | 3.5 | 0.00 | 0.00 | 0.00 | 93 | 1017.0 |
| 20260503015841 | 55 | 68 | 0.9 | 3.5 | 0.00 | 0.00 | 0.00 | 93 | 1017.0 |
| 20260503014839 | 55 | 68 | 0.9 | 3.5 | 0.00 | 0.00 | 0.00 | 93 | 1017.0 |
| 20260503013837 | 55 | 68 | 0.9 | 3.5 | 0.00 | 0.00 | 0.00 | 93 | 1017.0 |
| 20260503012837 | 55 | 68 | 0.9 | 3.5 | 0.00 | 0.00 | 0.00 | 93 | 1017.0 |
| 20260503011836 | 54 | 68 | 0.9 | 3.5 | 0.00 | 0.00 | 0.00 | 93 | 1017.0 |
| 20260503010834 | 54 | 68 | 0.9 | 3.5 | 0.00 | 0.00 | 0.00 | 94 | 1017.0 |
| 20260503005832 | 55 | 68 | 0.9 | 3.5 | 0.00 | 0.00 | 0.00 | 94 | 1017.0 |
| 20260503004830 | 54 | 290 | 7.0 | 0.0 | 0.00 | 0.00 | 0.00 | 94 | 1017.0 |
| 20260503003830 | 55 | 290 | 7.0 | 0.0 | 0.00 | 0.00 | 0.00 | 94 | 1016.0 |
| 20260503002829 | 55 | 290 | 7.0 | 0.0 | 0.00 | 0.00 | 0.00 | 94 | 1015.0 |
| 20260503001827 | 55 | 290 | 7.0 | 0.0 | 0.00 | 0.00 | 0.00 | 94 | 1015.0 |
| 20260503000824 | 55 | 290 | 7.0 | 0.0 | 0.00 | 0.00 | 0.00 | 94 | 1015.0 |
| 20260502235822 | 55 | 290 | 7.0 | 0.0 | 0.00 | 0.00 | 0.00 | 94 | 1015.0 |
| 20260502234821 | 55 | 290 | 7.0 | 0.0 | 0.00 | 0.00 | 0.00 | 93 | 1015.0 |
| 20260502233818 | 55 | 290 | 7.0 | 0.0 | 0.00 | 0.00 | 0.00 | 93 | 1015.0 |
| 20260502232818 | 55 | 290 | 7.0 | 0.0 | 0.00 | 0.00 | 0.00 | 94 | 1015.0 |
| 20260502231817 | 55 | 290 | 7.0 | 0.0 | 0.00 | 0.00 | 0.00 | 94 | 1015.0 |
| 20260502230816 | 55 | 290 | 7.0 | 0.0 | 0.00 | 0.00 | 0.00 | 94 | 1015.0 |
| 20260502225816 | 55 | 290 | 7.0 | 0.0 | 0.00 | 0.00 | 0.00 | 94 | 1015.0 |
| 20260502224814 | 56 | 290 | 7.0 | 0.0 | 0.00 | 0.00 | 0.00 | 94 | 1015.0 |
| 20260502223814 | 56 | 290 | 7.0 | 0.0 | 0.00 | 0.00 | 0.00 | 94 | 1015.0 |
| 20260502222813 | 56 | 290 | 7.0 | 0.0 | 0.00 | 0.00 | 0.00 | 94 | 1014.0 |
| 20260502221812 | 56 | 290 | 7.0 | 0.0 | 0.00 | 0.00 | 0.00 | 94 | 1014.0 |
| 20260502220810 | 56 | 290 | 7.0 | 0.0 | 0.00 | 0.00 | 0.00 | 94 | 1014.0 |
| 20260502215809 | 57 | 290 | 7.0 | 0.0 | 0.00 | 0.00 | 0.00 | 94 | 1014.0 |
| 20260502214808 | 57 | 290 | 7.0 | 0.0 | 0.00 | 0.00 | 0.00 | 94 | 1014.0 |
| 20260502213808 | 58 | 290 | 7.0 | 0.0 | 0.00 | 0.00 | 0.00 | 94 | 1014.0 |
| 20260502212808 | 58 | 290 | 7.0 | 0.0 | 0.00 | 0.00 | 0.00 | 93 | 1014.0 |
| 20260502211807 | 58 | 290 | 7.0 | 0.0 | 0.00 | 0.00 | 0.00 | 94 | 1014.0 |
| 20260502210807 | 58 | 290 | 7.0 | 0.0 | 0.00 | 0.00 | 0.00 | 94 | 1014.0 |
| 20260502205805 | 59 | 290 | 7.0 | 0.0 | 0.00 | 0.00 | 0.00 | 94 | 1014.0 |
| 20260502204755 | 59 | 290 | 7.0 | 0.0 | 0.00 | 0.00 | 0.00 | 93 | 1014.0 |
| 20260502203754 | 59 | 290 | 7.0 | 0.0 | 0.00 | 0.00 | 0.00 | 89 | 1014.0 |
| 20260502202754 | 59 | 290 | 7.0 | 0.0 | 0.00 | 0.00 | 0.00 | 89 | 1014.0 |
| 20260502201752 | 59 | 290 | 7.0 | 0.0 | 0.00 | 0.00 | 0.00 | 89 | 1014.0 |
| 20260502200748 | 60 | 290 | 7.0 | 0.0 | 0.00 | 0.00 | 0.00 | 90 | 1014.0 |
| 20260502195746 | 59 | 290 | 7.0 | 0.0 | 0.00 | 0.00 | 0.00 | 86 | 1014.0 |
| 20260502194744 | 59 | 290 | 7.0 | 0.0 | 0.00 | 0.00 | 0.00 | 85 | 1014.0 |
| 20260502193742 | 59 | 290 | 7.0 | 0.0 | 0.00 | 0.00 | 0.00 | 84 | 1014.0 |
| 20260502192741 | 59 | 290 | 7.0 | 0.0 | 0.00 | 0.00 | 0.00 | 82 | 1014.0 |
| 20260502191741 | 59 | 290 | 7.0 | 0.0 | 0.00 | 0.00 | 0.00 | 82 | 1014.0 |
| 20260502190739 | 59 | 290 | 7.0 | 0.0 | 0.00 | 0.00 | 0.00 | 82 | 1014.0 |
| 20260502185739 | 59 | 290 | 7.0 | 0.0 | 0.00 | 0.00 | 0.00 | 82 | 1014.0 |
| 20260502184738 | 59 | 290 | 7.0 | 0.0 | 0.00 | 0.00 | 0.00 | 81 | 1014.0 |
| 20260502183738 | 59 | 290 | 7.0 | 0.0 | 0.00 | 0.00 | 0.00 | 81 | 1014.0 |
| 20260502182737 | 59 | 290 | 7.0 | 0.0 | 0.00 | 0.00 | 0.00 | 81 | 1015.0 |
| 20260502181734 | 60 | 290 | 7.0 | 0.0 | 0.00 | 0.00 | 0.00 | 81 | 1015.0 |
| 20260502180733 | 60 | 290 | 7.0 | 0.0 | 0.00 | 0.00 | 0.00 | 81 | 1015.0 |
| 20260502163726 | 66 | 290 | 7.8 | 0.0 | 0.00 | 0.00 | 0.00 | 81 | 1016.0 |
| 20260502162725 | 60 | 274 | 0.9 | 0.9 | 0.00 | 0.00 | 0.00 | 77 | 1016.0 |
| 20260502161724 | 61 | 274 | 0.9 | 0.9 | 0.00 | 0.00 | 0.00 | 78 | 1016.0 |
| 20260502160723 | 60 | 276 | 0.9 | 0.9 | 0.00 | 0.00 | 0.00 | 78 | 1016.0 |
| 20260502151721 | 61 | 0 | 0.9 | 0.0 | 0.00 | 0.00 | 0.00 | 77 | 1016.0 |
| 20260502150719 | 61 | 0 | 0.9 | 0.0 | 0.00 | 0.00 | 0.00 | 77 | 1016.0 |
| 20260502130706 | 59 | 110 | 2.6 | 0.0 | 0.00 | 0.00 | 0.00 | 87 | 1016.0 |
| 20260502123701 | 59 | 110 | 2.6 | 0.0 | 0.00 | 0.00 | 0.00 | 87 | 1016.0 |
| 20260502122701 | 59 | 110 | 2.6 | 0.0 | 0.00 | 0.00 | 0.00 | 87 | 1016.0 |
| 20260502121658 | 59 | 110 | 2.6 | 0.0 | 0.00 | 0.00 | 0.00 | 87 | 1016.0 |
| 20260502120656 | 59 | 110 | 2.6 | 0.0 | 0.00 | 0.00 | 0.00 | 87 | 1016.0 |
| 20260502115655 | 59 | 120 | 2.6 | 0.0 | 0.00 | 0.00 | 0.00 | 87 | 1016.0 |
| 20260502114654 | 59 | 120 | 2.6 | 0.0 | 0.00 | 0.00 | 0.00 | 86 | 1016.0 |
| 20260502113653 | 59 | 120 | 2.6 | 0.0 | 0.00 | 0.00 | 0.00 | 86 | 1016.0 |
| 20260502112653 | 59 | 120 | 2.6 | 0.0 | 0.00 | 0.00 | 0.00 | 86 | 1016.0 |
| 20260502111652 | 59 | 120 | 2.6 | 0.0 | 0.00 | 0.00 | 0.00 | 85 | 1016.0 |
| 20260502110651 | 59 | 120 | 2.6 | 0.0 | 0.00 | 0.00 | 0.00 | 85 | 1016.0 |
| 20260502105650 | 59 | 120 | 2.6 | 0.0 | 0.00 | 0.00 | 0.00 | 84 | 1016.0 |
| 20260502104649 | 60 | 120 | 2.6 | 0.0 | 0.00 | 0.00 | 0.00 | 83 | 1016.0 |
| 20260502103649 | 61 | 120 | 2.6 | 0.0 | 0.00 | 0.00 | 0.00 | 82 | 1016.0 |
| 20260502102648 | 61 | 120 | 2.6 | 0.0 | 0.00 | 0.00 | 0.00 | 82 | 1016.0 |
| 20260502101648 | 61 | 120 | 2.6 | 0.0 | 0.00 | 0.00 | 0.00 | 82 | 1016.0 |
| 20260502100647 | 61 | 120 | 2.6 | 0.0 | 0.00 | 0.00 | 0.00 | 82 | 1016.0 |
| 20260502090639 | 52 | 110 | 3.5 | 2.6 | 0.00 | 0.00 | 0.00 | 83 | 1016.0 |